Location: Hilton Head Island
(32.2163°N, 80.7526°W)
Time: 20:46:56
(UTC-04:00)

Vanguard 2 Rocket - Pass Details

Date: 18 February 2026
Orbit: 553 x 3286 km, 32.9° (Epoch: 10 March)

Event Time Altitude Azimuth Distance (km) Brightness Sun altitude
Rises 17:10:45 0° 283° (WNW) 6,383 12.2 11.5°
Reaches altitude 10° 17:15:37 10° 282° (WNW) 4,969 11.8 10.5°
Maximum altitude 17:28:27 72° 201° (SSW) 1,561 8.4 8.0°
Drops below altitude 10° 17:35:28 10° 118° (ESE) 2,841 9.1 6.6°
Sets 17:37:33 0° 116° (ESE) 3,558 9.5 6.2°
